Location: Shenandoah County Park
(38.9356°N, 78.4524°W)
Time: 00:09:48
(UTC-04:00)

A-11 Canister half - Pass Details

Date: 06 December 2023
Orbit: 1523 x 1684 km, 47.3° (Epoch: 09 September)

Event Time Altitude Azimuth Distance (km) Brightness Sun altitude
Rises 18:34:50 0° 232° (SW) 4,909 12.8 -19.5°
Reaches altitude 10° 18:37:58 10° 232° (SW) 3,932 12.1 -20.1°
Maximum altitude 18:48:08 83° 146° (SE) 1,698 9.1 -22.1°
Enters shadow 18:53:30 33° 63° (ENE) 2,536 9.6 -23.1°
